Ypsilanti, MI

6:24 PM EST on December 08, 2016 (GMT -0500)
Willow Run

Weather History for KYIP - October, 2012

Change the Weather History Date:

Wednesday, October 24, 2012

  Actual Average Record
Temperature  
Mean Temperature 70 °F -  
Max Temperature 80 °F 60 °F 80 °F (2012)
Min Temperature 60 °F 41 °F 23 °F (1981)
Cooling Degree Days 5    
Growing Degree Days 20 (Base 50)    
Moisture  
Dew Point 58 °F    
Average Humidity 72    
Maximum Humidity 88    
Minimum Humidity 48    
Precipitation  
Precipitation 0.03 in - - ()
Sea Level Pressure  
Sea Level Pressure 30.00 in    
Wind  
Wind Speed 6 mph (South)    
Max Wind Speed 10 mph    
Max Gust Speed -    
Visibility 8 miles    
Events Rain    
Averages and records for this station are not official NWS values.
T = Trace of Precipitation, MM = Missing Value Source: NWS Daily Summary

Daily Weather History Graph

Daily Weather History Graph

Search for Another Location

Airport or City:

Trip Planner

Search our weather history database for the weather conditions in past years. The results will help you decide how hot, cold, wet, or windy it might be!

Date:

Astronomy

Oct. 24, 2012 Rise Set
Actual Time 7:57 AM EDT 6:37 PM EDT
Civil Twilight 7:29 AM EDT 7:06 PM EDT
Nautical Twilight 6:56 AM EDT 7:39 PM EDT
Astronomical Twilight 6:24 AM EDT 8:11 PM EDT
Moon 3:57 PM EDT (10/24) 2:46 AM EDT (10/24)
Length of Visible Light 11h 37m
Length of Day
10h 39m
Waxing Gibbous, 76% of the Moon is Illuminated
Oct 24
Waxing Gibbous
Oct 29
Full
Nov 6
Last Quarter
Nov 13
New
Nov 20
First Quarter

Hourly Weather History & Observations

Time (EDT) Temp. Heat Index Dew Point Humidity Pressure Visibility Wind Dir Wind Speed Gust Speed Precip Events Conditions
12:53 AM 64.9 °F - 57.9 °F 78% 30.01 in 10.0 mi SW 8.1 mph - N/A   Overcast
1:53 AM 64.0 °F - 57.9 °F 80% 30.01 in 9.0 mi SW 8.1 mph - N/A   Overcast
2:53 AM 64.0 °F - 59.0 °F 84% 30.01 in 7.0 mi SSW 5.8 mph - 0.02 in   Overcast
3:53 AM 63.0 °F - 57.9 °F 84% 30.00 in 8.0 mi South 4.6 mph - N/A   Overcast
4:53 AM 63.0 °F - 57.9 °F 84% 30.01 in 6.0 mi SW 5.8 mph - 0.00 in Rain Light Rain
5:53 AM 63.0 °F - 59.0 °F 87% 30.01 in 6.0 mi Calm Calm - 0.01 in   Overcast
6:53 AM 62.1 °F - 57.9 °F 86% 30.02 in 5.0 mi Calm Calm - N/A   Mostly Cloudy
7:53 AM 61.0 °F - 57.0 °F 87% 30.03 in 10.0 mi SSE 3.5 mph - N/A   Mostly Cloudy
8:20 AM 60.8 °F - 55.4 °F 82% 30.03 in 2.5 mi SE 4.6 mph - N/A   Scattered Clouds
8:36 AM 60.8 °F - 57.2 °F 88% 30.03 in 3.0 mi SSE 5.8 mph - N/A   Partly Cloudy
8:53 AM 63.0 °F - 57.9 °F 84% 30.02 in 5.0 mi SSE 6.9 mph - N/A   Haze
9:53 AM 66.0 °F - 57.0 °F 73% 30.02 in 10.0 mi SSW 9.2 mph - N/A   Clear
10:53 AM 69.1 °F - 57.0 °F 65% 30.02 in 10.0 mi SW 9.2 mph - N/A   Clear
11:53 AM 72.0 °F - 57.9 °F 61% 30.02 in 10.0 mi WSW 4.6 mph - N/A   Mostly Cloudy
12:53 PM 75.0 °F - 59.0 °F 57% 30.00 in 10.0 mi South 8.1 mph - N/A   Clear
1:53 PM 78.1 °F - 59.0 °F 52% 29.98 in 10.0 mi South 9.2 mph - N/A   Clear
2:53 PM 79.0 °F - 59.0 °F 50% 29.97 in 10.0 mi South 8.1 mph - N/A   Clear
3:53 PM 80.1 °F 80.7 °F 59.0 °F 48% 29.96 in 10.0 mi SSW 10.4 mph - N/A   Clear
5:53 PM 77.0 °F - 59.0 °F 54% 29.96 in 10.0 mi SSW 9.2 mph - N/A   Clear
6:53 PM 73.9 °F - 59.0 °F 59% 29.97 in 10.0 mi South 8.1 mph - N/A   Clear
7:53 PM 70.0 °F - 57.9 °F 65% 29.98 in 10.0 mi South 6.9 mph - N/A   Clear
9:53 PM 66.9 °F - 57.9 °F 73% 29.99 in 10.0 mi SSE 4.6 mph - N/A   Clear
10:53 PM 64.9 °F - 57.0 °F 75% 29.99 in 10.0 mi SSE 4.6 mph - N/A   Clear
11:53 PM 64.9 °F - 55.9 °F 73% 29.98 in 10.0 mi South 5.8 mph - N/A   Clear